date,time,SUV Intensity [MED/Hr],UV Index,Daily total [MED],Since Last [MED]
28/05/2022,00:09:43,-0.000,0.0,0.0,0.0
28/05/2022,00:11:35,0.000,0.0,0.0,0.0
28/05/2022,00:12:34,0.000,0.0,0.0,0.0
28/05/2022,00:13:34,-0.000,0.0,0.0,0.0
28/05/2022,00:14:34,-0.000,0.0,0.0,0.0
28/05/2022,00:15:34,-0.000,0.0,0.0,0.0
28/05/2022,00:16:34,0.001,0.0,0.0,0.0
28/05/2022,00:17:43,-0.000,0.0,0.0,0.0
28/05/2022,00:18:34,-0.001,0.0,0.0,0.0
28/05/2022,00:19:34,0.001,0.0,0.0,0.0
28/05/2022,00:20:34,0.000,0.0,0.0,0.0
28/05/2022,00:21:34,0.000,0.0,0.0,0.0
28/05/2022,00:22:34,-0.000,0.0,0.0,0.0
28/05/2022,00:23:35,0.001,0.0,0.0,0.0
28/05/2022,00:24:34,0.000,0.0,0.0,0.0
28/05/2022,00:25:34,0.000,0.0,0.0,0.0
28/05/2022,00:26:35,-0.001,0.0,0.0,0.0
28/05/2022,00:27:35,-0.000,0.0,0.0,0.0
28/05/2022,00:28:35,-0.001,0.0,0.0,0.0
28/05/2022,00:29:34,0.000,0.0,0.0,0.0
28/05/2022,00:30:34,0.001,0.0,0.0,0.0
28/05/2022,00:31:34,-0.001,0.0,0.0,0.0
28/05/2022,00:32:34,0.000,0.0,0.0,0.0
28/05/2022,00:33:34,0.000,0.0,0.0,0.0
28/05/2022,00:34:34,0.000,0.0,0.0,0.0
28/05/2022,00:35:42,-0.001,0.0,0.0,0.0
28/05/2022,00:36:34,0.000,0.0,0.0,0.0
28/05/2022,00:37:34,0.000,0.0,0.0,0.0
28/05/2022,00:38:34,-0.001,0.0,0.0,0.0
28/05/2022,00:39:34,0.001,0.0,0.0,0.0
28/05/2022,00:40:34,0.000,0.0,0.0,0.0
28/05/2022,00:41:42,0.001,0.0,0.0,0.0
28/05/2022,00:43:35,0.000,0.0,0.0,0.0
28/05/2022,00:44:36,-0.000,0.0,0.0,0.0
28/05/2022,00:45:35,0.000,0.0,0.0,0.0
28/05/2022,00:46:34,-0.001,0.0,0.0,0.0
28/05/2022,00:47:35,0.000,0.0,0.0,0.0
28/05/2022,00:48:34,0.001,0.0,0.0,0.0
28/05/2022,00:49:34,0.000,0.0,0.0,0.0
28/05/2022,00:50:34,-0.000,0.0,0.0,0.0
28/05/2022,00:51:43,-0.000,0.0,0.0,0.0
28/05/2022,00:52:34,-0.000,0.0,0.0,0.0
28/05/2022,00:53:35,-0.000,0.0,0.0,0.0
28/05/2022,00:54:42,0.000,0.0,0.0,0.0
28/05/2022,00:56:35,-0.000,0.0,0.0,0.0
28/05/2022,00:57:34,0.001,0.0,0.0,0.0
28/05/2022,00:58:34,0.001,0.0,0.0,0.0
28/05/2022,00:59:34,-0.000,0.0,0.0,0.0
28/05/2022,01:00:34,0.002,0.0,0.0,0.0
28/05/2022,01:01:34,0.001,0.0,0.0,0.0
28/05/2022,01:02:34,0.000,0.0,0.0,0.0
28/05/2022,01:03:34,-0.000,0.0,0.0,0.0
28/05/2022,01:04:35,0.000,0.0,0.0,0.0
28/05/2022,01:05:34,-0.000,0.0,0.0,0.0
28/05/2022,01:06:35,0.000,0.0,0.0,0.0
28/05/2022,01:07:42,-0.000,0.0,0.0,0.0
28/05/2022,01:08:33,0.001,0.0,0.0,0.0
28/05/2022,01:09:35,0.000,0.0,0.0,0.0
28/05/2022,01:10:34,-0.000,0.0,0.0,0.0
28/05/2022,01:11:34,0.000,0.0,0.0,0.0
28/05/2022,01:12:34,-0.000,0.0,0.0,0.0
28/05/2022,01:13:34,-0.001,0.0,0.0,0.0
28/05/2022,01:14:34,0.000,0.0,0.0,0.0
28/05/2022,01:15:34,0.000,0.0,0.0,0.0
28/05/2022,01:16:34,-0.000,0.0,0.0,0.0
28/05/2022,01:17:35,-0.000,0.0,0.0,0.0
28/05/2022,01:18:34,0.000,0.0,0.0,0.0
28/05/2022,01:19:43,-0.000,0.0,0.0,0.0
28/05/2022,01:21:35,-0.000,0.0,0.0,0.0
28/05/2022,01:22:34,0.001,0.0,0.0,0.0
28/05/2022,01:23:34,-0.000,0.0,0.0,0.0
28/05/2022,01:24:34,0.001,0.0,0.0,0.0
28/05/2022,01:25:34,0.000,0.0,0.0,0.0
28/05/2022,01:26:35,-0.000,0.0,0.0,0.0
28/05/2022,01:27:35,-0.001,0.0,0.0,0.0
28/05/2022,01:28:34,-0.000,0.0,0.0,0.0
28/05/2022,01:29:43,-0.000,0.0,0.0,0.0
28/05/2022,01:30:34,0.000,0.0,0.0,0.0
28/05/2022,01:31:35,-0.000,0.0,0.0,0.0
28/05/2022,01:32:43,-0.000,0.0,0.0,0.0
28/05/2022,01:33:34,0.000,0.0,0.0,0.0
28/05/2022,01:34:35,-0.000,0.0,0.0,0.0
28/05/2022,01:35:34,-0.002,0.0,0.0,0.0
28/05/2022,01:36:34,-0.001,0.0,0.0,0.0
28/05/2022,01:37:34,0.001,0.0,0.0,0.0
28/05/2022,01:38:34,0.000,0.0,0.0,0.0
28/05/2022,01:39:34,0.001,0.0,0.0,0.0
28/05/2022,01:40:34,0.000,0.0,0.0,0.0
28/05/2022,01:41:35,0.000,0.0,0.0,0.0
28/05/2022,01:42:34,0.000,0.0,0.0,0.0
28/05/2022,01:43:35,-0.000,0.0,0.0,0.0
28/05/2022,01:44:35,-0.000,0.0,0.0,0.0
28/05/2022,01:45:42,0.000,0.0,0.0,0.0
28/05/2022,01:47:35,-0.000,0.0,0.0,0.0
28/05/2022,01:48:42,0.000,0.0,0.0,0.0
28/05/2022,01:49:33,0.000,0.0,0.0,0.0
28/05/2022,01:50:34,0.001,0.0,0.0,0.0
28/05/2022,01:51:34,0.000,0.0,0.0,0.0
28/05/2022,01:52:34,0.000,0.0,0.0,0.0
28/05/2022,01:53:35,-0.001,0.0,0.0,0.0
28/05/2022,01:54:34,0.000,0.0,0.0,0.0
28/05/2022,01:55:35,-0.000,0.0,0.0,0.0
28/05/2022,01:56:35,-0.000,0.0,0.0,0.0
28/05/2022,01:57:34,0.000,0.0,0.0,0.0
28/05/2022,01:59:43,0.001,0.0,0.0,0.0
28/05/2022,02:01:35,0.000,0.0,0.0,0.0
28/05/2022,02:02:35,-0.000,0.0,0.0,0.0
28/05/2022,02:03:35,0.001,0.0,0.0,0.0
28/05/2022,02:04:35,0.000,0.0,0.0,0.0
28/05/2022,02:05:34,0.001,0.0,0.0,0.0
28/05/2022,02:06:35,0.001,0.0,0.0,0.0
28/05/2022,02:07:42,-0.000,0.0,0.0,0.0
28/05/2022,02:08:33,0.000,0.0,0.0,0.0
28/05/2022,02:09:34,0.000,0.0,0.0,0.0
28/05/2022,02:10:43,0.000,0.0,0.0,0.0
28/05/2022,02:11:34,-0.001,0.0,0.0,0.0
28/05/2022,02:12:25,0.000,0.0,0.0,0.0
28/05/2022,02:13:35,0.000,0.0,0.0,0.0
28/05/2022,02:14:35,0.001,0.0,0.0,0.0
28/05/2022,02:15:35,0.000,0.0,0.0,0.0
28/05/2022,02:16:34,0.000,0.0,0.0,0.0
28/05/2022,02:17:35,0.000,0.0,0.0,0.0
28/05/2022,02:18:34,0.001,0.0,0.0,0.0
28/05/2022,02:19:34,0.000,0.0,0.0,0.0
28/05/2022,02:20:34,0.000,0.0,0.0,0.0
28/05/2022,02:21:34,0.001,0.0,0.0,0.0
28/05/2022,02:22:34,0.000,0.0,0.0,0.0
28/05/2022,02:23:43,-0.000,0.0,0.0,0.0
28/05/2022,02:24:34,0.000,0.0,0.0,0.0
28/05/2022,02:25:35,0.000,0.0,0.0,0.0
28/05/2022,02:26:43,0.001,0.0,0.0,0.0
28/05/2022,02:28:35,0.001,0.0,0.0,0.0
28/05/2022,02:29:35,0.001,0.0,0.0,0.0
28/05/2022,02:30:35,0.001,0.0,0.0,0.0
28/05/2022,02:31:35,-0.000,0.0,0.0,0.0
28/05/2022,02:32:34,0.000,0.0,0.0,0.0
28/05/2022,02:33:43,0.001,0.0,0.0,0.0
28/05/2022,02:34:34,0.000,0.0,0.0,0.0
28/05/2022,02:35:34,0.000,0.0,0.0,0.0
28/05/2022,02:36:43,0.001,0.0,0.0,0.0
28/05/2022,02:37:34,-0.000,0.0,0.0,0.0
28/05/2022,02:38:35,0.000,0.0,0.0,0.0
28/05/2022,02:39:35,0.001,0.0,0.0,0.0
28/05/2022,02:40:34,-0.000,0.0,0.0,0.0
28/05/2022,02:41:35,0.000,0.0,0.0,0.0
28/05/2022,02:42:35,-0.000,0.0,0.0,0.0
28/05/2022,02:43:42,-0.000,0.0,0.0,0.0
28/05/2022,02:44:34,0.000,0.0,0.0,0.0
28/05/2022,02:45:34,0.000,0.0,0.0,0.0
28/05/2022,02:46:34,0.000,0.0,0.0,0.0
28/05/2022,02:47:35,0.000,0.0,0.0,0.0
28/05/2022,02:48:34,0.000,0.0,0.0,0.0
28/05/2022,02:49:34,0.001,0.0,0.0,0.0
28/05/2022,02:50:35,0.000,0.0,0.0,0.0
28/05/2022,02:51:34,0.001,0.0,0.0,0.0
28/05/2022,02:52:43,0.000,0.0,0.0,0.0
28/05/2022,02:54:35,0.001,0.0,0.0,0.0
28/05/2022,02:55:34,0.000,0.0,0.0,0.0
28/05/2022,02:56:34,0.000,0.0,0.0,0.0
28/05/2022,02:57:34,0.001,0.0,0.0,0.0
28/05/2022,02:58:43,0.000,0.0,0.0,0.0
28/05/2022,03:00:35,0.001,0.0,0.0,0.0
28/05/2022,03:01:34,0.000,0.0,0.0,0.0
28/05/2022,03:03:35,0.000,0.0,0.0,0.0
28/05/2022,03:04:35,0.000,0.0,0.0,0.0
28/05/2022,03:05:35,0.000,0.0,0.0,0.0
28/05/2022,03:06:34,0.000,0.0,0.0,0.0
28/05/2022,03:07:35,-0.000,0.0,0.0,0.0
28/05/2022,03:08:42,0.000,0.0,0.0,0.0
28/05/2022,03:09:34,0.001,0.0,0.0,0.0
28/05/2022,03:10:34,0.000,0.0,0.0,0.0
28/05/2022,03:11:34,-0.000,0.0,0.0,0.0
28/05/2022,03:12:35,0.001,0.0,0.0,0.0
28/05/2022,03:13:35,0.001,0.0,0.0,0.0
28/05/2022,03:14:43,0.001,0.0,0.0,0.0
28/05/2022,03:16:36,0.001,0.0,0.0,0.0
28/05/2022,03:17:33,0.001,0.0,0.0,0.0
28/05/2022,03:18:43,0.001,0.0,0.0,0.0
28/05/2022,03:20:35,0.001,0.0,0.0,0.0
28/05/2022,03:21:42,-0.000,0.0,0.0,0.0
28/05/2022,03:23:35,0.001,0.0,0.0,0.0
28/05/2022,03:24:34,0.001,0.0,0.0,0.0
28/05/2022,03:25:34,0.001,0.0,0.0,0.0
28/05/2022,03:26:34,0.001,0.0,0.0,0.0
28/05/2022,03:27:35,0.001,0.0,0.0,0.0
28/05/2022,03:28:43,0.001,0.0,0.0,0.0
28/05/2022,03:29:34,0.001,0.0,0.0,0.0
28/05/2022,03:30:34,0.001,0.0,0.0,0.0
28/05/2022,03:31:35,0.001,0.0,0.0,0.0
28/05/2022,03:32:35,0.001,0.0,0.0,0.0
28/05/2022,03:33:35,-0.000,0.0,0.0,0.0
28/05/2022,03:34:43,0.001,0.0,0.0,0.0
28/05/2022,03:35:35,0.001,0.0,0.0,0.0
28/05/2022,03:36:35,0.001,0.0,0.0,0.0
28/05/2022,03:37:35,0.001,0.0,0.0,0.0
28/05/2022,03:38:34,0.001,0.0,0.0,0.0
28/05/2022,03:39:34,0.001,0.0,0.0,0.0
28/05/2022,03:40:35,0.001,0.0,0.0,0.0
28/05/2022,03:41:35,0.001,0.0,0.0,0.0
28/05/2022,03:42:34,0.001,0.0,0.0,0.0
28/05/2022,03:43:34,0.001,0.0,0.0,0.0
28/05/2022,03:44:35,0.001,0.0,0.0,0.0
28/05/2022,03:45:34,0.002,0.0,0.0,0.0
28/05/2022,03:46:43,0.001,0.0,0.0,0.0
28/05/2022,03:48:35,0.001,0.0,0.0,0.0
28/05/2022,03:49:34,0.001,0.0,0.0,0.0
28/05/2022,03:50:35,0.001,0.0,0.0,0.0
28/05/2022,03:51:34,0.002,0.0,0.0,0.0
28/05/2022,03:52:34,0.001,0.0,0.0,0.0
28/05/2022,03:53:35,0.002,0.0,0.0,0.0
28/05/2022,03:54:35,0.003,0.0,0.0,0.0
28/05/2022,03:55:35,0.002,0.0,0.0,0.0
28/05/2022,03:56:34,0.002,0.0,0.0,0.0
28/05/2022,03:57:35,0.002,0.0,0.0,0.0
28/05/2022,03:58:34,0.002,0.0,0.0,0.0
28/05/2022,03:59:35,0.002,0.0,0.0,0.0
28/05/2022,04:00:35,0.002,0.0,0.0,0.0
28/05/2022,04:01:34,0.002,0.0,0.0,0.0
28/05/2022,04:02:35,0.003,0.0,0.0,0.0
28/05/2022,04:03:34,0.003,0.0,0.0,0.0
28/05/2022,04:04:35,0.003,0.0,0.0,0.0
28/05/2022,04:05:35,0.003,0.0,0.0,0.0
28/05/2022,04:06:35,0.004,0.0,0.0,0.0
28/05/2022,04:07:34,0.003,0.0,0.0,0.0
28/05/2022,04:08:36,0.004,0.0,0.0,0.0
28/05/2022,04:09:43,0.004,0.0,0.0,0.0
28/05/2022,04:11:36,0.003,0.0,0.0,0.0
28/05/2022,04:12:35,0.005,0.0,0.0,0.0
28/05/2022,04:13:34,0.004,0.0,0.0,0.0
28/05/2022,04:14:35,0.005,0.0,0.0,0.0
28/05/2022,04:15:35,0.005,0.0,0.0,0.0
28/05/2022,04:16:35,0.005,0.0,0.0,0.0
28/05/2022,04:17:34,0.005,0.0,0.0,0.0
28/05/2022,04:18:34,0.005,0.0,0.0,0.0
28/05/2022,04:19:43,0.006,0.0,0.0,0.0
28/05/2022,04:21:36,0.006,0.0,0.0,0.0
28/05/2022,04:22:43,0.006,0.0,0.0,0.0
28/05/2022,04:23:34,0.007,0.0,0.0,0.0
28/05/2022,04:24:35,0.007,0.0,0.0,0.0
28/05/2022,04:25:35,0.007,0.0,0.0,0.0
28/05/2022,04:26:35,0.007,0.0,0.001,0.001
28/05/2022,04:27:35,0.008,0.0,0.001,0.0
28/05/2022,04:28:35,0.007,0.0,0.001,0.0
28/05/2022,04:29:34,0.009,0.0,0.001,0.0
28/05/2022,04:30:34,0.008,0.0,0.001,0.0
28/05/2022,04:31:34,0.009,0.0,0.001,0.0
28/05/2022,04:32:43,0.009,0.0,0.001,0.0
28/05/2022,04:33:35,0.010,0.0,0.002,0.001
28/05/2022,04:34:35,0.009,0.0,0.002,0.0
28/05/2022,04:35:43,0.009,0.0,0.002,0.0
28/05/2022,04:37:35,0.011,0.0,0.002,0.0
28/05/2022,04:38:35,0.012,0.0,0.002,0.0
28/05/2022,04:39:35,0.012,0.0,0.003,0.001
28/05/2022,04:40:42,0.012,0.0,0.003,0.0
28/05/2022,04:41:35,0.013,0.0,0.003,0.0
28/05/2022,04:42:35,0.013,0.0,0.003,0.0
28/05/2022,04:43:35,0.014,0.0,0.003,0.0
28/05/2022,04:44:35,0.014,0.0,0.004,0.001
28/05/2022,04:45:43,0.014,0.0,0.004,0.0
28/05/2022,04:47:37,0.016,0.0,0.004,0.0
28/05/2022,04:48:42,0.015,0.0,0.005,0.001
28/05/2022,04:49:33,0.016,0.0,0.005,0.0
28/05/2022,04:50:34,0.017,0.0,0.005,0.0
28/05/2022,04:51:35,0.018,0.0,0.006,0.001
28/05/2022,04:52:35,0.018,0.0,0.006,0.0
28/05/2022,04:53:35,0.019,0.0,0.006,0.0
28/05/2022,04:54:34,0.019,0.0,0.007,0.001
28/05/2022,04:56:00,0.021,0.0,0.007,0.0
28/05/2022,04:57:35,0.022,0.0,0.008,0.001
28/05/2022,04:58:43,0.022,0.0,0.008,0.0
28/05/2022,05:00:36,0.025,0.0,0.009,0.001
28/05/2022,05:01:34,0.023,0.0,0.009,0.0
28/05/2022,05:02:35,0.025,0.0,0.009,0.0
28/05/2022,05:03:35,0.026,0.0,0.01,0.001
28/05/2022,05:04:35,0.026,0.0,0.01,0.0
28/05/2022,05:05:34,0.027,0.0,0.011,0.001
28/05/2022,05:06:34,0.028,0.0,0.011,0.0
28/05/2022,05:07:34,0.028,0.0,0.012,0.001
28/05/2022,05:08:34,0.029,0.0,0.012,0.0
28/05/2022,05:09:34,0.030,0.0,0.013,0.001
28/05/2022,05:10:35,0.031,0.0,0.013,0.0
28/05/2022,05:11:43,0.033,0.0,0.014,0.001
28/05/2022,05:13:35,0.033,0.0,0.015,0.001
28/05/2022,05:14:35,0.035,0.0,0.015,0.0
28/05/2022,05:15:34,0.036,0.0,0.016,0.001
28/05/2022,05:16:35,0.036,0.0,0.017,0.001
28/05/2022,05:17:35,0.037,0.0,0.017,0.0
28/05/2022,05:18:35,0.039,0.0,0.018,0.001
28/05/2022,05:19:35,0.040,0.0,0.018,0.0
28/05/2022,05:20:35,0.040,0.0,0.019,0.001
28/05/2022,05:21:43,0.042,0.0,0.02,0.001
28/05/2022,05:22:34,0.043,0.0,0.021,0.001
28/05/2022,05:23:34,0.044,0.0,0.021,0.0
28/05/2022,05:24:35,0.045,0.0,0.022,0.001
28/05/2022,05:25:35,0.046,0.0,0.023,0.001
28/05/2022,05:26:35,0.047,0.0,0.024,0.001
28/05/2022,05:27:42,0.049,0.0,0.024,0.0
28/05/2022,05:29:43,0.052,0.0,0.026,0.002
28/05/2022,05:31:35,0.054,0.0,0.028,0.002
28/05/2022,05:32:35,0.056,0.0,0.029,0.001
28/05/2022,05:33:34,0.057,0.0,0.03,0.001
28/05/2022,05:34:34,0.058,0.0,0.031,0.001
28/05/2022,05:35:35,0.059,0.0,0.032,0.001
28/05/2022,05:36:35,0.061,0.0,0.033,0.001
28/05/2022,05:37:45,0.062,0.0,0.034,0.001
28/05/2022,05:39:35,0.065,0.0,0.036,0.002
28/05/2022,05:40:35,0.067,0.0,0.037,0.001
28/05/2022,05:41:35,0.068,0.0,0.038,0.001
28/05/2022,05:42:34,0.070,0.0,0.039,0.001
28/05/2022,05:43:35,0.072,0.0,0.04,0.001
28/05/2022,05:44:35,0.073,0.0,0.041,0.001
28/05/2022,05:45:34,0.075,0.0,0.043,0.002
28/05/2022,05:46:36,0.077,0.0,0.044,0.001
28/05/2022,05:47:43,0.078,0.0,0.045,0.001
28/05/2022,05:49:36,0.080,0.0,0.048,0.003
28/05/2022,05:50:35,0.081,0.0,0.049,0.001
28/05/2022,05:51:35,0.083,0.0,0.051,0.002
28/05/2022,05:52:34,0.084,0.0,0.052,0.001
28/05/2022,05:53:35,0.087,0.0,0.053,0.001
28/05/2022,05:54:34,0.090,0.0,0.055,0.002
28/05/2022,05:55:35,0.093,0.0,0.056,0.001
28/05/2022,05:56:34,0.095,0.0,0.058,0.002
28/05/2022,05:57:43,0.098,0.0,0.06,0.002
28/05/2022,05:58:34,0.100,0.0,0.061,0.001
28/05/2022,05:59:35,0.104,0.0,0.063,0.002
28/05/2022,06:00:42,0.105,0.0,0.065,0.002
28/05/2022,06:02:36,0.109,0.0,0.068,0.003
28/05/2022,06:03:34,0.111,0.0,0.07,0.002
28/05/2022,06:04:35,0.114,0.0,0.072,0.002
28/05/2022,06:05:34,0.117,0.0,0.074,0.002
28/05/2022,06:06:34,0.118,0.0,0.076,0.002
28/05/2022,06:07:35,0.121,0.0,0.078,0.002
28/05/2022,06:08:35,0.123,0.0,0.08,0.002
28/05/2022,06:09:34,0.126,0.0,0.082,0.002
28/05/2022,06:10:35,0.128,0.0,0.084,0.002
28/05/2022,06:11:35,0.131,0.0,0.086,0.002
28/05/2022,06:12:35,0.133,0.0,0.088,0.002
28/05/2022,06:13:43,0.136,0.0,0.091,0.003
28/05/2022,06:14:34,0.139,0.0,0.093,0.002
28/05/2022,06:15:35,0.142,0.0,0.095,0.002
28/05/2022,06:16:35,0.144,0.0,0.098,0.003
28/05/2022,06:17:35,0.147,0.0,0.1,0.002
28/05/2022,06:18:35,0.149,0.0,0.102,0.002
28/05/2022,06:19:35,0.152,0.0,0.105,0.003
28/05/2022,06:20:34,0.156,0.0,0.108,0.003
28/05/2022,06:21:51,0.159,0.0,0.111,0.003
28/05/2022,06:23:35,0.164,0.0,0.116,0.005
28/05/2022,06:24:35,0.167,0.0,0.118,0.002
28/05/2022,06:25:35,0.171,0.0,0.121,0.003
28/05/2022,06:26:34,0.173,0.0,0.124,0.003
28/05/2022,06:27:35,0.176,0.0,0.127,0.003
28/05/2022,06:28:35,0.180,0.0,0.13,0.003
28/05/2022,06:29:35,0.184,0.0,0.133,0.003
28/05/2022,06:30:43,0.187,0.0,0.136,0.003
28/05/2022,06:32:36,0.193,0.0,0.142,0.006
28/05/2022,06:33:43,0.197,0.0,0.146,0.004
28/05/2022,06:35:36,0.205,0.0,0.152,0.006
28/05/2022,06:36:43,0.209,0.0,0.156,0.004
28/05/2022,06:37:34,0.212,0.0,0.159,0.003
28/05/2022,06:38:35,0.215,0.0,0.163,0.004
28/05/2022,06:39:35,0.218,1.0,0.167,0.004
28/05/2022,06:40:36,0.223,1.0,0.17,0.003
28/05/2022,06:41:34,0.226,1.0,0.174,0.004
28/05/2022,06:42:35,0.230,1.0,0.178,0.004
28/05/2022,06:43:35,0.235,1.0,0.182,0.004
28/05/2022,06:44:35,0.240,1.0,0.185,0.003
28/05/2022,06:45:35,0.245,1.0,0.19,0.005
28/05/2022,06:46:43,0.247,1.0,0.194,0.004
28/05/2022,06:48:35,0.256,1.0,0.202,0.008
28/05/2022,06:49:35,0.260,1.0,0.206,0.004
28/05/2022,06:50:35,0.266,1.0,0.21,0.004
28/05/2022,06:51:35,0.270,1.0,0.215,0.005
28/05/2022,06:52:35,0.272,1.0,0.219,0.004
28/05/2022,06:53:34,0.275,1.0,0.224,0.005
28/05/2022,06:54:35,0.256,1.0,0.229,0.005
28/05/2022,06:55:35,0.248,1.0,0.233,0.004
28/05/2022,06:56:34,0.263,1.0,0.238,0.005
28/05/2022,06:57:34,0.295,1.0,0.242,0.004
28/05/2022,06:58:35,0.300,1.0,0.247,0.005
28/05/2022,06:59:43,0.254,1.0,0.252,0.005
28/05/2022,07:00:35,0.309,1.0,0.257,0.005
28/05/2022,07:01:35,0.315,1.0,0.262,0.005
28/05/2022,07:02:35,0.319,1.0,0.267,0.005
28/05/2022,07:03:35,0.324,1.0,0.273,0.006
28/05/2022,07:04:35,0.326,1.0,0.278,0.005
28/05/2022,07:05:35,0.334,1.0,0.283,0.005
28/05/2022,07:06:35,0.342,1.0,0.289,0.006
28/05/2022,07:07:35,0.346,1.0,0.294,0.005
28/05/2022,07:08:35,0.351,1.0,0.3,0.006
28/05/2022,07:09:35,0.301,1.0,0.306,0.006
28/05/2022,07:10:35,0.352,1.0,0.312,0.006
28/05/2022,07:11:35,0.357,1.0,0.318,0.006
28/05/2022,07:12:43,0.374,1.0,0.324,0.006
28/05/2022,07:13:34,0.379,1.0,0.33,0.006
28/05/2022,07:14:35,0.384,1.0,0.336,0.006
28/05/2022,07:15:44,0.364,1.0,0.343,0.007
28/05/2022,07:17:35,0.403,1.0,0.355,0.012
28/05/2022,07:18:35,0.373,1.0,0.361,0.006
28/05/2022,07:19:35,0.385,1.0,0.368,0.007
28/05/2022,07:20:35,0.421,1.0,0.375,0.007
28/05/2022,07:21:35,0.347,1.0,0.382,0.007
28/05/2022,07:22:35,0.351,1.0,0.388,0.006
28/05/2022,07:23:35,0.438,1.0,0.395,0.007
28/05/2022,07:24:35,0.373,1.0,0.402,0.007
28/05/2022,07:25:43,0.451,1.0,0.41,0.008
28/05/2022,07:26:35,0.339,1.0,0.415,0.005
28/05/2022,07:27:35,0.454,1.0,0.421,0.006
28/05/2022,07:28:35,0.466,1.0,0.429,0.008
28/05/2022,07:29:35,0.474,1.0,0.437,0.008
28/05/2022,07:30:35,0.369,1.0,0.444,0.007
28/05/2022,07:31:33,0.486,1.0,0.451,0.007
28/05/2022,07:32:35,0.495,1.0,0.46,0.009
28/05/2022,07:33:35,0.488,1.0,0.468,0.008
28/05/2022,07:34:35,0.505,1.0,0.476,0.008
28/05/2022,07:35:43,0.502,1.0,0.486,0.01
28/05/2022,07:37:36,0.528,1.0,0.502,0.016
28/05/2022,07:38:35,0.535,1.0,0.51,0.008
28/05/2022,07:39:35,0.469,1.0,0.518,0.008
28/05/2022,07:40:35,0.393,1.0,0.525,0.007
28/05/2022,07:41:43,0.549,1.0,0.533,0.008
28/05/2022,07:42:33,0.408,1.0,0.54,0.007
28/05/2022,07:43:35,0.564,1.0,0.549,0.009
28/05/2022,07:44:35,0.572,1.0,0.558,0.009
28/05/2022,07:45:35,0.582,1.0,0.568,0.01
28/05/2022,07:46:35,0.590,1.0,0.577,0.009
28/05/2022,07:47:34,0.600,1.0,0.587,0.01
28/05/2022,07:48:35,0.574,1.0,0.598,0.011
28/05/2022,07:49:35,0.536,1.0,0.606,0.008
28/05/2022,07:50:35,0.621,1.0,0.616,0.01
28/05/2022,07:51:43,0.484,1.0,0.626,0.01
28/05/2022,07:52:35,0.638,1.0,0.634,0.008
28/05/2022,07:53:35,0.531,1.0,0.644,0.01
28/05/2022,07:54:44,0.655,2.0,0.656,0.012
28/05/2022,07:55:35,0.505,1.0,0.665,0.009
28/05/2022,07:56:35,0.664,2.0,0.675,0.01
28/05/2022,07:57:35,0.668,2.0,0.685,0.01
28/05/2022,07:58:35,0.502,1.0,0.696,0.011
28/05/2022,07:59:35,0.639,1.0,0.705,0.009
28/05/2022,08:00:35,0.711,2.0,0.716,0.011
28/05/2022,08:01:35,0.721,2.0,0.728,0.012
28/05/2022,08:02:35,0.728,2.0,0.74,0.012
28/05/2022,08:03:35,0.731,2.0,0.753,0.013
28/05/2022,08:04:43,0.735,2.0,0.767,0.014
28/05/2022,08:05:35,0.737,2.0,0.777,0.01
28/05/2022,08:06:35,0.745,2.0,0.789,0.012
28/05/2022,08:07:35,0.753,2.0,0.802,0.013
28/05/2022,08:08:34,0.760,2.0,0.814,0.012
28/05/2022,08:09:35,0.624,1.0,0.826,0.012
28/05/2022,08:10:35,0.788,2.0,0.838,0.012
28/05/2022,08:11:35,0.804,2.0,0.852,0.014
28/05/2022,08:12:44,0.811,2.0,0.867,0.015
28/05/2022,08:13:35,0.813,2.0,0.879,0.012
28/05/2022,08:14:35,0.819,2.0,0.893,0.014
28/05/2022,08:15:35,0.824,2.0,0.906,0.013
28/05/2022,08:16:35,0.754,2.0,0.92,0.014
28/05/2022,08:17:35,0.836,2.0,0.934,0.014
28/05/2022,08:18:35,0.645,1.0,0.946,0.012
28/05/2022,08:19:35,0.854,2.0,0.96,0.014
28/05/2022,08:20:43,0.862,2.0,0.976,0.016
28/05/2022,08:21:35,0.870,2.0,0.988,0.012
28/05/2022,08:22:35,0.878,2.0,1.003,0.015
28/05/2022,08:23:35,0.874,2.0,1.018,0.015
28/05/2022,08:24:35,0.600,1.0,1.03,0.012
28/05/2022,08:25:35,0.700,2.0,1.042,0.012
28/05/2022,08:26:35,0.753,2.0,1.055,0.013
28/05/2022,08:27:35,0.583,1.0,1.064,0.009
28/05/2022,08:28:35,0.652,1.0,1.074,0.01
28/05/2022,08:29:35,0.919,2.0,1.089,0.015
28/05/2022,08:30:43,0.879,2.0,1.105,0.016
28/05/2022,08:32:36,0.958,2.0,1.132,0.027
28/05/2022,08:33:35,0.974,2.0,1.147,0.015
28/05/2022,08:34:35,0.983,2.0,1.164,0.017
28/05/2022,08:35:35,0.657,2.0,1.176,0.012
28/05/2022,08:36:35,0.619,1.0,1.186,0.01
28/05/2022,08:37:35,1.000,2.0,1.199,0.013
28/05/2022,08:38:35,1.013,2.0,1.216,0.017
28/05/2022,08:39:35,1.028,2.0,1.233,0.017
28/05/2022,08:40:35,1.043,2.0,1.25,0.017
28/05/2022,08:41:35,1.058,2.0,1.268,0.018
28/05/2022,08:42:35,1.071,2.0,1.285,0.017
28/05/2022,08:43:44,1.045,2.0,1.305,0.02
28/05/2022,08:45:37,1.090,3.0,1.339,0.034
28/05/2022,08:46:45,1.096,3.0,1.36,0.021
28/05/2022,08:48:35,1.099,3.0,1.392,0.032
28/05/2022,08:49:34,0.691,2.0,1.407,0.015
28/05/2022,08:50:35,0.826,2.0,1.419,0.012
28/05/2022,08:51:35,0.674,2.0,1.433,0.014
28/05/2022,08:52:35,0.680,2.0,1.444,0.011
28/05/2022,08:53:35,0.697,2.0,1.456,0.012
28/05/2022,08:54:35,0.708,2.0,1.467,0.011
28/05/2022,08:55:35,1.094,3.0,1.481,0.014
28/05/2022,08:56:43,1.201,3.0,1.503,0.022
28/05/2022,08:57:35,1.222,3.0,1.52,0.017
28/05/2022,08:58:35,0.909,2.0,1.54,0.02
28/05/2022,08:59:35,0.821,2.0,1.554,0.014
28/05/2022,09:00:35,0.763,2.0,1.568,0.014
28/05/2022,09:01:35,1.222,3.0,1.584,0.016
28/05/2022,09:02:35,0.735,2.0,1.598,0.014
28/05/2022,09:03:35,0.745,2.0,1.61,0.012
28/05/2022,09:04:35,0.954,2.0,1.623,0.013
28/05/2022,09:05:35,1.177,3.0,1.643,0.02
28/05/2022,09:06:43,0.788,2.0,1.659,0.016
28/05/2022,09:07:34,0.777,2.0,1.67,0.011
28/05/2022,09:08:35,1.063,2.0,1.689,0.019
28/05/2022,09:09:35,0.793,2.0,1.705,0.016
28/05/2022,09:10:35,1.330,3.0,1.72,0.015
28/05/2022,09:11:35,1.353,3.0,1.742,0.022
28/05/2022,09:12:35,1.381,3.0,1.766,0.024
28/05/2022,09:13:35,1.399,3.0,1.789,0.023
28/05/2022,09:14:35,1.423,3.0,1.812,0.023
28/05/2022,09:15:36,1.436,3.0,1.836,0.024
28/05/2022,09:16:35,1.453,3.0,1.859,0.023
28/05/2022,09:17:35,1.464,3.0,1.885,0.026
28/05/2022,09:18:35,1.466,3.0,1.909,0.024
28/05/2022,09:19:36,1.459,3.0,1.933,0.024
28/05/2022,09:20:35,1.466,3.0,1.958,0.025
28/05/2022,09:21:35,1.474,3.0,1.982,0.024
28/05/2022,09:22:44,1.490,3.0,2.01,0.028
28/05/2022,09:24:35,1.532,4.0,2.057,0.047
28/05/2022,09:25:35,1.547,4.0,2.083,0.026
28/05/2022,09:26:35,1.541,4.0,2.108,0.025
28/05/2022,09:27:35,1.533,4.0,2.133,0.025
28/05/2022,09:28:36,1.544,4.0,2.16,0.027
28/05/2022,09:29:35,1.540,4.0,2.185,0.025
28/05/2022,09:30:35,1.543,4.0,2.211,0.026
28/05/2022,09:31:35,1.551,4.0,2.236,0.025
28/05/2022,09:32:35,1.556,4.0,2.261,0.025
28/05/2022,09:33:35,1.524,4.0,2.285,0.024
28/05/2022,09:34:44,1.051,2.0,2.31,0.025
28/05/2022,09:36:36,0.925,2.0,2.344,0.034
28/05/2022,09:37:35,1.067,2.0,2.365,0.021
28/05/2022,09:38:35,0.916,2.0,2.381,0.016
28/05/2022,09:39:35,0.956,2.0,2.397,0.016
28/05/2022,09:40:35,1.071,2.0,2.417,0.02
28/05/2022,09:41:35,1.556,3.0,2.438,0.021
28/05/2022,09:42:35,1.648,4.0,2.464,0.026
28/05/2022,09:43:35,1.667,4.0,2.492,0.028
28/05/2022,09:44:44,1.683,4.0,2.524,0.032
28/05/2022,09:45:35,1.681,4.0,2.547,0.023
28/05/2022,09:46:35,1.678,4.0,2.576,0.029
28/05/2022,09:47:35,1.701,4.0,2.603,0.027
28/05/2022,09:48:35,1.731,4.0,2.632,0.029
28/05/2022,09:49:37,1.706,4.0,2.661,0.029
28/05/2022,09:50:44,1.684,4.0,2.693,0.032
28/05/2022,09:52:36,0.838,2.0,2.725,0.032
28/05/2022,09:53:34,0.810,2.0,2.738,0.013
28/05/2022,09:54:35,0.805,2.0,2.751,0.013
28/05/2022,09:55:35,0.806,2.0,2.765,0.014
28/05/2022,09:56:35,0.809,2.0,2.778,0.013
28/05/2022,09:57:35,0.832,2.0,2.792,0.014
28/05/2022,09:58:35,0.912,2.0,2.811,0.019
28/05/2022,09:59:35,0.874,2.0,2.826,0.015
28/05/2022,10:00:44,0.860,2.0,2.843,0.017
28/05/2022,10:02:35,0.864,2.0,2.869,0.026
28/05/2022,10:03:44,0.886,2.0,2.886,0.017
28/05/2022,10:05:35,1.012,2.0,2.915,0.029
28/05/2022,10:06:35,1.848,4.0,2.941,0.026
28/05/2022,10:07:35,1.860,4.0,2.973,0.032
28/05/2022,10:08:35,1.088,2.0,3.0,0.027
28/05/2022,10:09:35,1.455,3.0,3.02,0.02
28/05/2022,10:10:36,1.670,4.0,3.049,0.029
28/05/2022,10:11:36,0.976,2.0,3.07,0.021
28/05/2022,10:12:35,0.911,2.0,3.085,0.015
28/05/2022,10:13:44,0.860,2.0,3.104,0.019
28/05/2022,10:15:35,0.799,2.0,3.13,0.026
28/05/2022,10:16:37,0.753,2.0,3.143,0.013
28/05/2022,10:17:35,0.691,2.0,3.155,0.012
28/05/2022,10:18:36,0.645,1.0,3.166,0.011
28/05/2022,10:19:44,0.615,1.0,3.178,0.012
28/05/2022,10:20:36,0.599,1.0,3.187,0.009
28/05/2022,10:21:35,0.596,1.0,3.197,0.01
28/05/2022,10:22:35,0.608,1.0,3.207,0.01
28/05/2022,10:23:35,0.634,1.0,3.217,0.01
28/05/2022,10:24:35,0.661,2.0,3.228,0.011
28/05/2022,10:25:35,0.684,2.0,3.239,0.011
28/05/2022,10:26:35,0.715,2.0,3.25,0.011
28/05/2022,10:27:36,0.760,2.0,3.263,0.013
28/05/2022,10:28:35,0.805,2.0,3.276,0.013
28/05/2022,10:29:37,0.840,2.0,3.29,0.014
28/05/2022,10:30:35,0.860,2.0,3.304,0.014
28/05/2022,10:31:35,0.878,2.0,3.319,0.015
28/05/2022,10:32:35,0.916,2.0,3.333,0.014
28/05/2022,10:33:35,0.934,2.0,3.349,0.016
28/05/2022,10:34:35,0.978,2.0,3.365,0.016
28/05/2022,10:35:35,1.031,2.0,3.381,0.016
28/05/2022,10:36:37,1.469,3.0,3.402,0.021
28/05/2022,10:37:36,2.028,5.0,3.428,0.026
28/05/2022,10:38:35,2.027,5.0,3.461,0.033
28/05/2022,10:39:36,1.395,3.0,3.495,0.034
28/05/2022,10:40:35,0.953,2.0,3.512,0.017
28/05/2022,10:41:35,0.861,2.0,3.527,0.015
28/05/2022,10:42:35,0.790,2.0,3.541,0.014
28/05/2022,10:43:36,0.744,2.0,3.554,0.013
28/05/2022,10:44:43,0.734,2.0,3.568,0.014